We konden geen weer-waarchuwingen ophalen. Ga rechtstreeks naar de Meteoalarm site : www.meteoalarm.eu en controleer daar .



Onweer radar Meer informatie blitzortung!


Regen radar Meer informatie rain snow radar


Bezoek onze andere website:

Template documentation
and downloads

And another site



15 daagse weersverwachting Hallein (AT)

  • Overzicht
  • Per uur
  • 15 dagen
  • Extra
  • Vergelijk
  • Kaarten
  • Dagkaart
  • Meer »
  • Info
  • Statistieken
  • Directe link
    Temp 6h Neerslag Wind  
 06:09     20:14    Daglengte: 14:05 Vandaag
02:00
20°
 
2
08:00
20°
 
1
14:00
27°
0.8 mm
2
warningclass
20:00
23°
 
1
 06:10     20:13    Daglengte: 14:03 Morgen
02:00
19°
 
1
08:00
19°
2.5 mm
2
14:00
22°
6.4 mm
2
warningclass
20:00
18°
29.9 mm
1
 06:12     20:11    Daglengte: 13:59 Zaterdag 20 Aug
02:00
17°
65.0 mm
3
08:00
15°
66.2 mm
1
14:00
19°
84.9 mm
2
20:00
18°
84.2 mm
2
Locatie info
Region: Salzburg
Latitude: 47.6815°N
Longitude: 13.0926°E
447 masl
Postcode: 5400
Temp/Neerslag /Baro Onweer/Dauwpunt
    Temp Baro 1h Neerslag Dauwpunt Wind UV Bewolking  
 06:09     20:14    Daglengte: 14:05 Vandaag
01:00
20°
1011.8 hPa
14%
16.6°
2
Windvlaag: 1.8 m/s
36%
02:00
20°
1011.9 hPa
14%
14.7°
2
Windvlaag: 1.5 m/s
42%
03:00
19°
1011.8 hPa
14%
13.1°
2
Windvlaag: 3.4 m/s
39%
04:00
19°
1011.8 hPa
14%
12.3°
2
Windvlaag: 3.4 m/s
33%
05:00
19°
1011.9 hPa
14%
11.6°
2
Windvlaag: 3 m/s
25%
06:00
19°
1011.8 hPa
14%
10.8°
2
Windvlaag: 2.5 m/s
34%
07:00
19°
1012.5 hPa
14%
11.3°
2
Windvlaag: -1.6 m/s
43%
08:00
20°
1013.0 hPa
14%
11.4°
1
Windvlaag: -2.1 m/s
55%
09:00
22°
1012.4 hPa
14%
10.5°
1
Windvlaag: -0.2 m/s
55%
10:00
23°
1012.0 hPa
25%
8.4°
1
Windvlaag: -1.5 m/s
65%
11:00
25°
1011.4 hPa
70%
6.0°
1
Windvlaag: -2.3 m/s
64%
12:00
27°
Voelt als: 26.3°
1010.9 hPa
26%
6.3°
1
Windvlaag: -3 m/s
57%
13:00
27°
Voelt als: 26.8°
1010.8 hPa
76%
9.0°
3
Windvlaag: -2.1 m/s
60%
14:00
27°
Voelt als: 26.9°
1010.5 hPa 0.8 mm
82%
10.6°
2
Windvlaag: -3 m/s
82% warningclass
15:00
25°
1010.6 hPa
82%
8.8°
2
Windvlaag: -2.5 m/s
45%
16:00
25°
1009.6 hPa
14%
9.3°
2
Windvlaag: -1.1 m/s
51%
17:00
26°
1009.9 hPa
14%
9.6°
2
Windvlaag: 1.1 m/s
49%
18:00
26°
1009.9 hPa
14%
9.0°
2
Windvlaag: 1.6 m/s
34%
19:00
25°
1010.0 hPa
14%
10.1°
2
Windvlaag: 0.3 m/s
21%
20:00
23°
1010.0 hPa
16%
12.8°
1
Windvlaag: 0.1 m/s
38%
21:00
22°
1010.5 hPa
17%
17.5°
1
Windvlaag: 1.1 m/s
34%
22:00
21°
1010.7 hPa
14%
17.6°
1
Windvlaag: 1.1 m/s
42%
23:00
20°
1011.1 hPa
14%
16.2°
1
Windvlaag: 2.6 m/s
54%
 06:10     20:13    Daglengte: 14:03 Morgen
00:00
20°
1011.4 hPa
14%
14.7°
1
Windvlaag: 1.3 m/s
50%
01:00
20°
1011.4 hPa
14%
15.8°
1
Windvlaag: 1.2 m/s
56%
02:00
19°
1011.2 hPa
15%
15.8°
1
Windvlaag: 1.3 m/s
73%
03:00
18°
1011.3 hPa
15%
15.6°
1
Windvlaag: 1.1 m/s
84%
04:00
18°
1011.7 hPa
17%
15.4°
1
Windvlaag: 2.9 m/s
86%
05:00
18°
1011.8 hPa
20%
15.1°
2
Windvlaag: 3.3 m/s
86%
06:00
18°
1011.8 hPa 1.0 mm
82%
14.1°
1
Windvlaag: 0.5 m/s
86%
07:00
19°
1011.9 hPa 1.5 mm
82%
13.6°
2
Windvlaag: -0.6 m/s
86%
08:00
19°
1011.8 hPa
82%
12.6°
2
Windvlaag: 0.7 m/s
84%
09:00
20°
1011.3 hPa 1.1 mm
82%
10.8°
2
Windvlaag: -2.2 m/s
85%
10:00
21°
1011.6 hPa 1.4 mm
82%
8.0°
2
Windvlaag: -3.4 m/s
80%
11:00
21°
1011.7 hPa 1.1 mm
82%
7.6°
2
Windvlaag: -3.2 m/s
77%
12:00
22°
1011.7 hPa
82%
6.7°
2
Windvlaag: -2.6 m/s
77%
13:00
22°
1011.6 hPa 1.1 mm
82%
5.5°
2
Windvlaag: -2.8 m/s
82%
14:00
22°
1011.6 hPa 1.7 mm
82%
5.8°
2
Windvlaag: -2.7 m/s
85% warningclass
15:00
22°
1011.6 hPa 3.0 mm
82%
8.7°
2
Windvlaag: -2.4 m/s
85% warningclass
16:00
22°
1011.4 hPa 6.9 mm
82%
9.9°
1
Windvlaag: -2.6 m/s
82% warningclass
17:00
20°
1011.8 hPa 7.1 mm
100%
12.8°
2
Windvlaag: -2.9 m/s
93% warningclass
18:00
20°
1012.2 hPa 4.6 mm
100%
14.5°
1
Windvlaag: -2.5 m/s
100% warningclass
19:00
19°
1012.4 hPa 3.2 mm
100%
16.5°
1
Windvlaag: 0.3 m/s
100%
20:00
18°
1012.8 hPa 5.2 mm
100%
15.4°
1
Windvlaag: 2 m/s
100%
21:00
17°
1014.4 hPa 7.4 mm
100%
15.9°
1
Windvlaag: 2.6 m/s
100%
22:00
17°
1014.2 hPa 10.8 mm
100%
15.6°
1
Windvlaag: 3.1 m/s
100%
23:00
17°
1014.7 hPa 14.4 mm
100%
16.1°
1
Windvlaag: 2.7 m/s
100%
 06:12     20:11    Daglengte: 13:59 Zaterdag 20 Aug
00:00
17°
1015.2 hPa 12.4 mm
100%
16.0°
2
Windvlaag: -1.2 m/s
100%
01:00
17°
1015.8 hPa 11.7 mm
100%
15.7°
3
Windvlaag: -0.2 m/s
100%
02:00
17°
1016.2 hPa 8.3 mm
100%
15.6°
3
Windvlaag: -0.7 m/s
100%
03:00
16°
1016.5 hPa 9.9 mm
100%
15.4°
3
Windvlaag: -0.7 m/s
100%
04:00
16°
1016.7 hPa 9.8 mm
100%
15.2°
2
Windvlaag: -0.8 m/s
100%
05:00
16°
1016.5 hPa 9.8 mm
100%
15.5°
2
Windvlaag: -1.4 m/s
100%
06:00
16°
1016.8 hPa 9.9 mm
100%
15.5°
3
Windvlaag: -0.9 m/s
100%
07:00
16°
1017.3 hPa 9.9 mm
100%
15.0°
2
Windvlaag: -0.8 m/s
98%
08:00
15°
1017.9 hPa 16.8 mm
100%
14.0°
1
Windvlaag: 10.2 m/s
100%
09:00
15°
1018.1 hPa 17.4 mm
100%
13.9°
2
Windvlaag: 9.5 m/s
100%
10:00
16°
1018.1 hPa 17.2 mm
100%
13.8°
2
Windvlaag: 10.7 m/s
100%
11:00
17°
1018.5 hPa 16.8 mm
100%
13.0°
1
Windvlaag: 10 m/s
100%
12:00
17°
1018.4 hPa 16.8 mm
100%
10.4°
2
Windvlaag: 8.6 m/s
90%
13:00
18°
1018.3 hPa 16.6 mm
100%
11.2°
1
Windvlaag: 7.7 m/s
100%
14:00
19°
1017.8 hPa
100%
10.1°
2
Windvlaag: 7.4 m/s
78%
15:00
20°
1017.4 hPa 16.5 mm
95%
10.3°
2
Windvlaag: 6.4 m/s
28%
16:00
20°
1017.0 hPa 16.4 mm
97%
10.7°
2
Windvlaag: 7 m/s
43%
17:00
20°
1016.7 hPa 16.9 mm
98%
11.0°
2
Windvlaag: 7.3 m/s
55%
18:00
19°
1016.9 hPa 17.2 mm
97%
13.7°
2
Windvlaag: 7.7 m/s
44%
19:00
19°
1017.2 hPa 17.2 mm
92%
16.8°
2
Windvlaag: 8.7 m/s
38% warningclass
20:00
18°
1017.7 hPa
90%
16.2°
2
Windvlaag: 9.3 m/s
81%
21:00
17°
1018.4 hPa 17.9 mm
94%
15.2°
2
Windvlaag: 9.3 m/s
65% warningclass
22:00
17°
1018.2 hPa 17.9 mm
96%
14.6°
2
Windvlaag: 9.4 m/s
70%
23:00
16°
1018.1 hPa 17.4 mm
96%
14.7°
1
Windvlaag: 8.9 m/s
97%
 06:13     20:09    Daglengte: 13:56 Zondag 21 Aug
00:00
16°
1018.0 hPa 17.6 mm
95%
14.8°
1
Windvlaag: 8.9 m/s
99% warningclass
Temp/Neerslag /Baro Onweer/Dauwpunt
    Temp Baro Neerslag Dauwpunt Wind Bewolking  
 06:09     20:14    Daglengte: 14:05 Vandaag
02:00
20°
1011.9 hPa   14.7°
2
42%
05:00
19°
1011.9 hPa   11.6°
2
25%
08:00
20°
1013.0 hPa   11.4°
1
55%
11:00
25°
1011.4 hPa   6.0°
1
64%
14:00
27°
Voelt als: 26.9°
1010.5 hPa 0.8 mm 10.6°
2
82% warningclass
17:00
26°
1009.9 hPa   9.6°
2
49%
20:00
23°
1010.0 hPa   12.8°
1
38%
23:00
20°
1011.1 hPa   16.2°
1
54%
 06:10     20:13    Daglengte: 14:03 Morgen
02:00
19°
1011.2 hPa   15.8°
1
73%
05:00
18°
1011.8 hPa   15.1°
2
86%
08:00
19°
1011.8 hPa 2.5 mm 12.6°
2
84%
11:00
21°
1011.7 hPa 3.6 mm 7.6°
2
77%
14:00
22°
1011.6 hPa 2.8 mm 5.8°
2
85% warningclass
17:00
20°
1011.8 hPa 16.9 mm 12.8°
2
93% warningclass
20:00
18°
1012.8 hPa 12.9 mm 15.4°
1
100%
23:00
17°
1014.7 hPa 32.6 mm 16.1°
1
100%
 06:12     20:11    Daglengte: 13:59 Zaterdag 20 Aug
02:00
17°
1016.2 hPa 32.3 mm 15.6°
3
100%
05:00
16°
1016.5 hPa 29.6 mm 15.5°
2
100%
08:00
15°
1017.9 hPa 36.6 mm 14.0°
1
100%
11:00
17°
1018.5 hPa 51.5 mm 13.0°
1
100%
14:00
19°
1017.8 hPa 33.4 mm 10.1°
2
78%
17:00
20°
1016.7 hPa 49.8 mm 11.0°
2
55%
20:00
18°
1017.7 hPa 34.4 mm 16.2°
2
81%
23:00
16°
1018.1 hPa 53.1 mm 14.7°
1
97%
 06:13     20:09    Daglengte: 13:56 Zondag 21 Aug
02:00
16°
1017.7 hPa 54.0 mm 13.0°
1
94%
05:00
16°
1017.2 hPa 47.9 mm 15.0°
1
1%
08:00
16°
1017.2 hPa 48.7 mm 15.6°
1
1%
11:00
18°
1016.5 hPa 49.7 mm 16.7°
1
1%
14:00
22°
1014.6 hPa 50.8 mm 13.6°
2
1%
17:00
23°
1013.8 hPa 51.1 mm 14.2°
2
0%
20:00
17°
1015.0 hPa 51.4 mm 13.7°
1
0%
23:00
17°
1015.6 hPa 51.4 mm 11.8°
1
1%
 06:14     20:07    Daglengte: 13:53 Maandag 22 Aug
02:00
15°
1016.2 hPa 51.6 mm 12.6°
1
1%
05:00
16°
1016.0 hPa 51.8 mm 12.4°
1
1%
08:00
16°
1017.5 hPa 52.1 mm 13.9°
1
1%
11:00
17°
1017.7 hPa 52.9 mm 15.4°
1
1%
14:00
21°
1016.7 hPa 53.9 mm 14.7°
2
1%
17:00
21°
1016.5 hPa 54.8 mm 14.2°
2
0%
20:00
16°
1017.5 hPa 55.2 mm 12.9°
1
0%
23:00
16°
1018.6 hPa 55.4 mm 13.9°
1
1%
 06:16     20:05    Daglengte: 13:49 Dinsdag 23 Aug
02:00
15°
1018.8 hPa 55.4 mm 13.6°
0
1%
05:00
14°
1019.3 hPa 55.4 mm 12.5°
1
1%
08:00
16°
1019.7 hPa 55.4 mm 13.6°
1
1%
11:00
21°
1018.7 hPa 55.5 mm 11.5°
2
0%
14:00
21°
1018.5 hPa 55.5 mm 12.9°
2
0%
17:00
22°
1017.9 hPa 55.5 mm 12.6°
2
1%
20:00
16°
1019.3 hPa 55.5 mm 13.5°
1
0%
23:00
14°
1019.9 hPa 55.5 mm 12.2°
2
0%
 06:17     20:03    Daglengte: 13:46 Woensdag 24 Aug
02:00
13°
1019.8 hPa 55.5 mm 11.2°
2
0%
05:00
13°
1019.3 hPa 55.5 mm 10.5°
2
0%
08:00
16°
1019.3 hPa 55.5 mm 11.9°
1
0%
11:00
22°
1018.2 hPa 55.5 mm 14.7°
1
0%
14:00
24°
1016.9 hPa 55.5 mm 15.5°
2
1%
17:00
24°
1016.6 hPa 55.5 mm 16.1°
2
0%
20:00
18°
1018.0 hPa 55.6 mm 16.4°
0
0%
23:00
17°
1019.1 hPa   15.2°
2
0%
 06:18     20:01    Daglengte: 13:43 Donderdag 25 Aug
02:00
16°
1019.1 hPa 111.1 mm 14.2°
2
0%
08:00
18°
1018.8 hPa 111.1 mm 15.1°
0
0%
14:00
26°
1016.7 hPa 111.3 mm 18.7°
2
0%
20:00
21°
1016.8 hPa 115.9 mm 18.0°
0
1%
 06:20     20:00    Daglengte: 13:40 Vrijdag 26 Aug
02:00
18°
1018.1 hPa 121.4 mm 16.1°
2
1%
08:00
20°
1017.5 hPa 121.7 mm 16.1°
1
1%
14:00
28°
1015.1 hPa 122.0 mm 18.6°
2
1%
20:00
18°
1016.8 hPa 135.0 mm 17.3°
3
1%
 06:21     19:58    Daglengte: 13:37 Zaterdag 27 Aug
02:00
18°
1016.6 hPa 143.4 mm 15.8°
2
1%
08:00
20°
1016.8 hPa 143.4 mm 15.5°
2
1%
14:00
29°
1015.5 hPa 143.4 mm 18.4°
2
1%
20:00
19°
1019.0 hPa 2.0 mm 16.4°
0
61%
 06:22     19:56    Daglengte: 13:34 Zondag 28 Aug
02:00
16°
1020.3 hPa 1.2 mm 14.7°
2
60%
08:00
18°
1020.3 hPa 0.3 mm 15.2°
1
46%
14:00
26°
1018.7 hPa 0.9 mm 16.3°
2
41%
20:00
19°
1019.5 hPa 2.4 mm 16.5°
0
59%
 06:24     19:54    Daglengte: 13:30 Maandag 29 Aug
02:00
16°
1020.8 hPa 1.8 mm 14.7°
2
63%
08:00
17°
1020.5 hPa 0.3 mm 15.1°
1
51%
14:00
25°
1018.9 hPa 1.0 mm 16.3°
2
50%
20:00
18°
1019.4 hPa 2.4 mm 15.7°
0
53%
 06:25     19:52    Daglengte: 13:27 Dinsdag 30 Aug
02:00
16°
1020.4 hPa 0.9 mm 14.1°
1
60%
08:00
17°
1020.0 hPa 0.5 mm 14.6°
1
57%
14:00
24°
1018.1 hPa 0.8 mm 15.6°
1
58%
20:00
18°
1018.3 hPa 2.0 mm 15.2°
0
66%
 06:26     19:50    Daglengte: 13:24 Woensdag 31 Aug
02:00
16°
1019.3 hPa 1.0 mm 13.9°
1
63%
08:00
16°
1019.1 hPa 0.5 mm 14.5°
1
57%
14:00
24°
1017.1 hPa 1.4 mm 15.2°
2
49%
20:00
18°
1017.5 hPa 2.7 mm 14.8°
0
60%
 06:28     19:48    Daglengte: 13:20 Donderdag 01 Sep
02:00
15°
1018.7 hPa 1.9 mm 13.1°
1
59%
08:00
16°
1018.8 hPa 1.2 mm 13.2°
1
53%
14:00
22°
1017.5 hPa 1.5 mm 13.9°
1
47%
20:00
16°
1018.1 hPa 1.5 mm 13.2°
0
59%
  CAPE Lifted Index Hail Supercell Tornado SRH 3km CL BTM PRES CL TOP PRES Swiss DWD icon SMHI TS
 06:09     20:14    Daglengte: 14:05 Vandaag
01:00 0 J/kg 1.1 K 0 % 0 % 0 % 0 m²/s² 0 0 2.18 3
02:00 0 J/kg 1.3 K 0 % 0 % 0 % 0 m²/s² 0 0 2.38 3
03:00 0 J/kg 1.6 K 0 % 0 % 0 % 0 m²/s² 0 0 2.77 3
04:00 0 J/kg 1.3 K 0 % 0 % 0 % 0 m²/s² 0 0 3.19 3
05:00 0 J/kg 1.3 K 0 % 0 % 0 % 0 m²/s² 0 0 3.52 3
06:00 3 J/kg 0.6 K 0 % 0 % 0 % 0 m²/s² 0 0 2.37 3
07:00 0 J/kg 0.1 K 0 % 0 % 0 % 0 m²/s² 0 0 1.51 3
08:00 0 J/kg -0.6 K 0 % 0 % 0 % 0 m²/s² 0 0 0.63 3
09:00 10 J/kg -0.9 K 0 % 0 % 0 % 0 m²/s² 0 0 0.57 3
10:00 510 J/kg -2.7 K 0 % 0 % 0 % 0 m²/s² 0 0 -0.93 3
11:00 932 J/kg -4.1 K 0 % 0 % 0 % 0 m²/s² 0 0 -2.51 3
12:00 1536 J/kg -5.7 K 0 % 0 % 0 % 0 m²/s² 0 0 -4.5 3
13:00 1433 J/kg -4.4 K 0 % 0 % 0 % 0 m²/s² 0 0 -3.56 3
14:00 1646 J/kg -5.0 K 0 % 0 % 0 % 0 m²/s² 0 0 -3.29 61
15:00 1756 J/kg -5.4 K 0 % 0 % 0 % 0 m²/s² 0 0 -3.87 3
16:00 2111 J/kg -6.9 K 0 % 0 % 0 % 0 m²/s² 0 0 -5.31 3
17:00 2211 J/kg -7.0 K 0 % 0 % 0 % 0 m²/s² 0 0 -4.9 3
18:00 1338 J/kg -5.5 K 0 % 0 % 0 % 0 m²/s² 0 0 -3.31 3
19:00 1561 J/kg -5.7 K 0 % 0 % 0 % 0 m²/s² 0 0 -3.93 3
20:00 1526 J/kg -5.2 K 0 % 0 % 0 % 0 m²/s² 0 0 -3.85 3
21:00 1127 J/kg -4.1 K 0 % 0 % 0 % 0 m²/s² 0 0 -2.27 3
22:00 897 J/kg -4.3 K 0 % 0 % 0 % 0 m²/s² 0 0 -1.6 3
23:00 287 J/kg -1.8 K 0 % 0 % 0 % 0 m²/s² 0 0 -1.26 3
 06:10     20:13    Daglengte: 14:03 Morgen
00:00 0 J/kg -0.8 K 0 % 0 % 0 % 0 m²/s² 0 0 1.06 3
01:00 0 J/kg -2.6 K 0 % 0 % 0 % 0 m²/s² 0 0 -0.56 3
02:00 0 J/kg -3.1 K 0 % 0 % 0 % 0 m²/s² 0 0 -0.85 3
03:00 0 J/kg -2.9 K 0 % 0 % 0 % 0 m²/s² 0 0 -1.64 3
04:00 0 J/kg -0.7 K 0 % 0 % 0 % 0 m²/s² 0 0 -0.67 3
05:00 0 J/kg 2.4 K 0 % 0 % 0 % 0 m²/s² 0 0 2.58 3
06:00 0 J/kg 1.0 K 0 % 0 % 0 % 0 m²/s² 0 0 2.71 3
07:00 0 J/kg -0.3 K 0 % 0 % 0 % 0 m²/s² 0 0 0.99 80
08:00 0 J/kg 0.7 K 0 % 0 % 0 % 0 m²/s² 0 0 2.59 61
09:00 0 J/kg 0.7 K 0 % 0 % 0 % 0 m²/s² 0 0 3.37 3
10:00 170 J/kg -1.5 K 0 % 0 % 0 % 0 m²/s² 0 0 1.14 80
11:00 236 J/kg -1.5 K 0 % 0 % 0 % 0 m²/s² 0 0 1.83 80
12:00 609 J/kg -2.8 K 0 % 0 % 0 % 0 m²/s² 0 0 0.41 61
13:00 930 J/kg -3.6 K 0 % 0 % 0 % 0 m²/s² 0 0 -0.9 80
14:00 1123 J/kg -4.1 K 0 % 0 % 0 % 0 m²/s² 0 0 -2.42 80
15:00 1159 J/kg -5.3 K 0 % 0 % 0 % 0 m²/s² 0 0 -4.25 63
16:00 1086 J/kg -5.1 K 0 % 0 % 0 % 0 m²/s² 0 0 -3.6 65
17:00 1233 J/kg -5.4 K 0 % 0 % 0 % 0 m²/s² 0 0 -3.21 65
18:00 1270 J/kg -5.3 K 0 % 0 % 0 % 0 m²/s² 0 0 -4.91 63
19:00 616 J/kg -3.6 K 0 % 0 % 0 % 0 m²/s² 0 0 -1.59 63
20:00 4 J/kg -1.2 K 0 % 0 % 0 % 0 m²/s² 0 0 -0.63 63
21:00 0 J/kg 0.1 K 0 % 0 % 0 % 0 m²/s² 0 0 0.1 63
22:00 0 J/kg 0.0 K 0 % 0 % 0 % 0 m²/s² 0 0 0.21 63
23:00 1 J/kg 0.2 K 0 % 0 % 0 % 0 m²/s² 0 0 0.65 65
 06:12     20:11    Daglengte: 13:59 Zaterdag 20 Aug
00:00 0 J/kg -0.7 K 0 % 0 % 0 % 0 m²/s² 0 0 -0.04 63
01:00 0 J/kg -2.2 K 0 % 0 % 0 % 0 m²/s² 0 0 -1.72 63
02:00 0 J/kg -1.4 K 0 % 0 % 0 % 0 m²/s² 0 0 -1.31 63
03:00 0 J/kg -2.1 K 0 % 0 % 0 % 0 m²/s² 0 0 -1.83 63
04:00 0 J/kg -1.7 K 0 % 0 % 0 % 0 m²/s² 0 0 -1.61 61
05:00 0 J/kg -0.7 K 0 % 0 % 0 % 0 m²/s² 0 0 -0.22 61
06:00 0 J/kg -0.6 K 0 % 0 % 0 % 0 m²/s² 0 0 -0.33 61
07:00 0 J/kg -0.5 K 0 % 0 % 0 % 0 m²/s² 0 0 0.04 61
08:00 0 J/kg 0.3 K 0 % 0 % 0 % 0 m²/s² 0 0 0.75 61
09:00 0 J/kg -0.4 K 0 % 0 % 0 % 0 m²/s² 0 0 -0.04 63
10:00 0 J/kg 0.7 K 0 % 0 % 0 % 0 m²/s² 0 0 1.18 80
11:00 9 J/kg 1.2 K 0 % 0 % 0 % 0 m²/s² 0 0 1.74 61
12:00 6 J/kg 2.3 K 0 % 0 % 0 % 0 m²/s² 0 0 2.84 80
13:00 24 J/kg 1.7 K 0 % 0 % 0 % 0 m²/s² 0 0 2.15 3
14:00 26 J/kg 1.4 K 0 % 0 % 0 % 0 m²/s² 0 0 1.94 3
15:00 57 J/kg 0.8 K 0 % 0 % 0 % 0 m²/s² 0 0 1.19 2
16:00 78 J/kg 0.9 K 0 % 0 % 0 % 0 m²/s² 0 0 1.35 2
17:00 130 J/kg -0.1 K 0 % 0 % 0 % 0 m²/s² 0 0 0.53 3
18:00 323 J/kg -1.1 K 0 % 0 % 0 % 0 m²/s² 0 0 -0.38 80
19:00 563 J/kg -2.7 K 0 % 0 % 0 % 0 m²/s² 0 0 -2.22 80
20:00 509 J/kg -2.0 K 0 % 0 % 0 % 0 m²/s² 0 0 -1.13 3
21:00 302 J/kg -1.7 K 0 % 0 % 0 % 0 m²/s² 0 0 -0.71 95
22:00 111 J/kg -1.4 K 0 % 0 % 0 % 0 m²/s² 0 0 -0.2 80
23:00 113 J/kg -0.7 K 0 % 0 % 0 % 0 m²/s² 0 0 0.41 80
 06:13     20:09    Daglengte: 13:56 Zondag 21 Aug
00:00 199 J/kg -0.5 K 0 % 0 % 0 % 0 m²/s² 0 0 0.07 95
Temp Baro Wind Neerslag
  EWN Forecast EWN WRFDA DWD ICON FMI HIRLAM MET Norway GFS
 06:09     20:14    Daglengte: 14:05 Vandaag
02:00 19.7° 1011.9 hPa 1.7 m/s 0.0 mm 20.8° 1011.0 hPa 3.4 m/s 0.4 mm 19.2° 1011.5 hPa 1.6 m/s -2.0 mm 19.4° 1014.7 hPa 1.7 m/s 0.0 mm 19.3° 1011.7 hPa 2.3 m/s
05:00 18.8° 1011.9 hPa 2.0 m/s 0.0 mm 20.6° 1010.4 hPa 3.9 m/s 0.5 mm 18.3° 1010.8 hPa 1.6 m/s 0.0 mm 18.4° 1014.7 hPa 2.0 m/s 0.0 mm 17.6° 1012.6 hPa 1.5 m/s
08:00 20.0° 1013.0 hPa 1.1 m/s 0.0 mm 24.1° 1011.1 hPa 1.7 m/s 0.5 mm 18.7° 1012.2 hPa 0.4 m/s 0.0 mm 20.8° 1013.9 hPa 1.7 m/s 0.0 mm 19.9° 1013.5 hPa 0.4 m/s
11:00 25.4° 1011.4 hPa 0.8 m/s 0.0 mm 26.9° 1010.5 hPa 1.6 m/s 0.5 mm 22.4° 1011.0 hPa 0.6 m/s 0.0 mm 33.3° 1012.0 hPa 0.4 m/s 0.0 mm 24.5° 1012.8 hPa 1.5 m/s
14:00 27.3° 1010.5 hPa 2.3 m/s 0.8 mm 24.3° 1009.7 hPa 2.1 m/s 1.5 mm 20.8° 1011.6 hPa 0.9 m/s 1.2 mm 36.1° 1010.4 hPa 2.4 m/s 0.0 mm 25.8° 1010.8 hPa 2.3 m/s
17:00 25.9° 1009.9 hPa 1.9 m/s 0.0 mm 27.5° 1008.3 hPa 2.2 m/s 2.3 mm 22.1° 1010.3 hPa 1.6 m/s 0.0 mm 34.1° 1008.8 hPa 3.3 m/s 0.0 mm 23.6° 1010.8 hPa 1.4 m/s
20:00 23.1° 1010.0 hPa 1.3 m/s 0.0 mm 24.3° 1008.4 hPa 0.8 m/s 2.3 mm 20.5° 1010.2 hPa 0.5 m/s 0.0 mm 27.4° 1009.7 hPa 1.6 m/s 0.0 mm 20.0° 1010.8 hPa 0.5 m/s
23:00 19.9° 1011.1 hPa 1.2 m/s 0.0 mm 22.0° 1009.5 hPa 1.0 m/s 2.3 mm 17.8° 1011.2 hPa 1.0 m/s 0.0 mm 19.9° 1011.6 hPa 1.1 m/s 0.0 mm 18.0° 1012.1 hPa 0.8 m/s
 06:10     20:13    Daglengte: 14:03 Morgen
02:00 19.1° 1011.2 hPa 0.9 m/s 0.0 mm 20.8° 1007.3 hPa 1.3 m/s 2.5 mm 17.6° 1011.7 hPa 0.4 m/s 0.0 mm 19.1° 1012.0 hPa 0.8 m/s 0.0 mm 18.1° 1011.8 hPa 1.3 m/s
05:00 18.1° 1011.8 hPa 1.6 m/s 0.0 mm 19.0° 1012.8 hPa 7.4 m/s 5.6 mm 16.9° 1011.6 hPa 0.9 m/s 0.0 mm 17.9° 1012.3 hPa 1.4 m/s 0.0 mm 17.1° 1011.6 hPa 1.1 m/s
08:00 19.3° 1011.8 hPa 1.8 m/s 2.5 mm 20.4° 1007.4 hPa 7.6 m/s 13.3 mm 16.2° 1013.3 hPa 0.4 m/s 1.8 mm 21.8° 1012.1 hPa 1.9 m/s 0.0 mm 18.8° 1011.8 hPa 0.4 m/s
11:00 21.0° 1011.7 hPa 1.8 m/s 3.6 mm 25.6° 1007.1 hPa 2.1 m/s 13.4 mm 17.0° 1013.0 hPa 1.1 m/s 1.5 mm 30.9° 1011.0 hPa 2.5 m/s 0.0 mm 20.3° 1011.8 hPa 1.7 m/s
14:00 22.0° 1011.6 hPa 1.9 m/s 2.8 mm 25.4° 1008.3 hPa 3.9 m/s 13.4 mm 16.7° 1013.1 hPa 0.8 m/s 2.7 mm 34.6° 1010.2 hPa 2.7 m/s 0.0 mm 20.0° 1012.1 hPa 1.4 m/s
17:00 19.9° 1011.8 hPa 1.9 m/s 16.9 mm 25.1° 1008.6 hPa 3.0 m/s 14.4 mm 16.6° 1013.7 hPa 0.9 m/s 31.8 mm 21.1° 1011.9 hPa 2.3 m/s
20:00 18.1° 1012.8 hPa 0.9 m/s 12.9 mm 18.8° 1011.0 hPa 2.2 m/s 18.2 mm 16.0° 1014.8 hPa 0.4 m/s 21.3 mm 18.0° 1013.9 hPa 1.4 m/s
23:00 17.4° 1014.7 hPa 1.2 m/s 32.6 mm 17.8° 1014.0 hPa 3.5 m/s 50.6 mm 15.8° 1015.7 hPa 1.1 m/s 38.7 mm 17.5° 1014.9 hPa 1.3 m/s
 06:12     20:11    Daglengte: 13:59 Zaterdag 20 Aug
02:00 16.5° 1016.2 hPa 2.6 m/s 32.3 mm 17.8° 1012.5 hPa 2.9 m/s 69.4 mm 15.9° 1016.9 hPa 1.0 m/s 20.2 mm 16.8° 1016.1 hPa 1.8 m/s
05:00 16.2° 1016.5 hPa 1.5 m/s 29.6 mm 17.3° 1012.6 hPa 5.2 m/s 125.4 mm 14.8° 1017.5 hPa 1.2 m/s 6.0 mm 16.3° 1017.1 hPa 1.6 m/s
08:00 15.3° 1017.9 hPa 1.2 m/s 36.6 mm 16.9° 1014.9 hPa 4.5 m/s 138.8 mm 14.9° 1018.6 hPa 0.4 m/s 3.5 mm 16.7° 1017.4 hPa 1.3 m/s
11:00 16.6° 1018.5 hPa 1.5 m/s 51.5 mm 18.9° 1016.0 hPa 4.6 m/s 145.7 mm 16.0° 1019.1 hPa 0.7 m/s 4.4 mm 19.1° 1017.4 hPa 0.6 m/s
14:00 19.0° 1017.8 hPa 1.7 m/s 33.4 mm 22.8° 1015.8 hPa 4.5 m/s 147.1 mm 18.0° 1018.3 hPa 0.9 m/s 1.1 mm 19.2° 1017.6 hPa 0.7 m/s
17:00 20.2° 1016.7 hPa 1.9 m/s 49.8 mm 23.9° 1014.9 hPa 4.6 m/s 147.1 mm 19.3° 1017.1 hPa 1.2 m/s 1.2 mm 22.0° 1016.1 hPa 0.6 m/s
20:00 17.9° 1017.7 hPa 1.8 m/s 34.4 mm 19.3° 1015.4 hPa 4.6 m/s 149.2 mm 17.5° 1018.3 hPa 1.1 m/s 2.2 mm 16.5° 1018.4 hPa 2.0 m/s
23:00 16.3° 1018.1 hPa 1.4 m/s 53.1 mm 17.9° 1016.3 hPa 3.6 m/s 152.8 mm 15.9° 1018.6 hPa 0.9 m/s 3.3 mm 16.3° 1018.7 hPa 1.1 m/s
 06:13     20:09    Daglengte: 13:56 Zondag 21 Aug
02:00 15.7° 1017.7 hPa 1.5 m/s 54.0 mm 17.0° 1015.7 hPa 4.2 m/s 156.0 mm 15.4° 1018.2 hPa 0.8 m/s 3.0 mm 16.2° 1017.7 hPa 1.3 m/s
05:00 16.2° 1017.2 hPa 0.9 m/s 47.9 mm 16.2° 1017.2 hPa 0.9 m/s 47.9 mm
08:00 16.4° 1017.2 hPa 0.6 m/s 48.7 mm 16.4° 1017.2 hPa 0.6 m/s 48.7 mm
11:00 18.4° 1016.5 hPa 1.4 m/s 49.7 mm 18.4° 1016.5 hPa 1.4 m/s 49.7 mm
14:00 22.2° 1014.6 hPa 1.7 m/s 50.8 mm 22.2° 1014.6 hPa 1.7 m/s 50.8 mm
17:00 22.5° 1013.8 hPa 2.4 m/s 51.1 mm 22.5° 1013.8 hPa 2.4 m/s 51.1 mm
20:00 17.1° 1015.0 hPa 1.4 m/s 51.4 mm 17.1° 1015.0 hPa 1.4 m/s 51.4 mm
23:00 16.8° 1015.6 hPa 1.2 m/s 51.4 mm 16.8° 1015.6 hPa 1.2 m/s 51.4 mm
 06:14     20:07    Daglengte: 13:53 Maandag 22 Aug
02:00 15.1° 1016.2 hPa 1.2 m/s 51.6 mm 15.1° 1016.2 hPa 1.2 m/s 51.6 mm
05:00 16.2° 1016.0 hPa 0.7 m/s 51.8 mm 16.2° 1016.0 hPa 0.7 m/s 51.8 mm
08:00 15.8° 1017.5 hPa 0.8 m/s 52.1 mm 15.8° 1017.5 hPa 0.8 m/s 52.1 mm
11:00 17.1° 1017.7 hPa 0.6 m/s 52.9 mm 17.1° 1017.7 hPa 0.6 m/s 52.9 mm
14:00 21.2° 1016.7 hPa 2.1 m/s 53.9 mm 21.2° 1016.7 hPa 2.1 m/s 53.9 mm
17:00 21.4° 1016.5 hPa 2.1 m/s 54.8 mm 21.4° 1016.5 hPa 2.1 m/s 54.8 mm
20:00 16.3° 1017.5 hPa 0.9 m/s 55.2 mm 16.3° 1017.5 hPa 0.9 m/s 55.2 mm
23:00 15.7° 1018.6 hPa 0.6 m/s 55.4 mm 15.7° 1018.6 hPa 0.6 m/s 55.4 mm
 06:16     20:05    Daglengte: 13:49 Dinsdag 23 Aug
02:00 15.5° 1018.8 hPa 0.5 m/s 55.4 mm 15.5° 1018.8 hPa 0.5 m/s 55.4 mm
05:00 13.9° 1019.3 hPa 1.2 m/s 55.4 mm 13.9° 1019.3 hPa 1.2 m/s 55.4 mm
08:00 15.9° 1019.7 hPa 0.8 m/s 55.4 mm 15.9° 1019.7 hPa 0.8 m/s 55.4 mm
11:00 21.4° 1018.7 hPa 1.9 m/s 55.5 mm 21.4° 1018.7 hPa 1.9 m/s 55.5 mm
14:00 21.2° 1018.5 hPa 2.3 m/s 55.5 mm 21.2° 1018.5 hPa 2.3 m/s 55.5 mm
17:00 22.0° 1017.9 hPa 2.1 m/s 55.5 mm 22.0° 1017.9 hPa 2.1 m/s 55.5 mm
20:00 16.1° 1019.3 hPa 0.8 m/s 55.5 mm 16.1° 1019.3 hPa 0.8 m/s 55.5 mm
23:00 14.2° 1019.9 hPa 1.8 m/s 55.5 mm 14.2° 1019.9 hPa 1.8 m/s 55.5 mm
 06:17     20:03    Daglengte: 13:46 Woensdag 24 Aug
02:00 13.3° 1019.8 hPa 1.8 m/s 55.5 mm 13.3° 1019.8 hPa 1.8 m/s 55.5 mm
05:00 12.7° 1019.3 hPa 1.8 m/s 55.5 mm 12.7° 1019.3 hPa 1.8 m/s 55.5 mm
08:00 15.9° 1019.3 hPa 0.7 m/s 55.5 mm 15.9° 1019.3 hPa 0.7 m/s 55.5 mm
11:00 21.7° 1018.2 hPa 1.5 m/s 55.5 mm 21.7° 1018.2 hPa 1.5 m/s 55.5 mm
14:00 24.4° 1016.9 hPa 2.1 m/s 55.5 mm 24.4° 1016.9 hPa 2.1 m/s 55.5 mm
17:00 24.2° 1016.6 hPa 2.3 m/s 55.5 mm 24.2° 1016.6 hPa 2.3 m/s 55.5 mm
20:00 18.1° 1018.0 hPa 0.3 m/s 55.6 mm 18.1° 1018.0 hPa 0.3 m/s 55.6 mm
23:00 16.5° 1019.1 hPa 1.7 m/s 55.6 mm 16.5° 1019.1 hPa 1.7 m/s 55.6 mm
 06:18     20:01    Daglengte: 13:43 Donderdag 25 Aug
02:00 15.9° 1019.1 hPa 1.6 m/s 55.6 mm 15.9° 1019.1 hPa 1.6 m/s 55.6 mm
08:00 18.2° 1018.8 hPa 0.3 m/s 55.6 mm 18.2° 1018.8 hPa 0.3 m/s 55.6 mm
14:00 26.4° 1016.7 hPa 2.0 m/s 55.8 mm 26.4° 1016.7 hPa 2.0 m/s 55.8 mm
20:00 20.8° 1016.8 hPa 0.4 m/s 59.4 mm 20.8° 1016.8 hPa 0.4 m/s 59.4 mm
 06:20     20:00    Daglengte: 13:40 Vrijdag 26 Aug
02:00 18.1° 1018.1 hPa 2.0 m/s 60.7 mm 18.1° 1018.1 hPa 2.0 m/s 60.7 mm
08:00 19.8° 1017.5 hPa 1.2 m/s 60.9 mm 19.8° 1017.5 hPa 1.2 m/s 60.9 mm
14:00 27.8° 1015.1 hPa 1.7 m/s 61.1 mm 27.8° 1015.1 hPa 1.7 m/s 61.1 mm
20:00 18.3° 1016.8 hPa 2.7 m/s 71.7 mm 18.3° 1016.8 hPa 2.7 m/s 71.7 mm
 06:21     19:58    Daglengte: 13:37 Zaterdag 27 Aug
02:00 17.8° 1016.6 hPa 2.5 m/s 71.7 mm 17.8° 1016.6 hPa 2.5 m/s 71.7 mm
08:00 19.7° 1016.8 hPa 1.7 m/s 71.7 mm 19.7° 1016.8 hPa 1.7 m/s 71.7 mm
14:00 28.8° 1015.5 hPa 1.9 m/s 71.7 mm 28.8° 1015.5 hPa 1.9 m/s 71.7 mm
20:00 19.4° 1019.0 hPa 0.5 m/s 2.0 mm
 06:22     19:56    Daglengte: 13:34 Zondag 28 Aug
02:00 16.3° 1020.3 hPa 1.6 m/s 1.2 mm
08:00 17.7° 1020.3 hPa 1.2 m/s 0.3 mm
14:00 25.9° 1018.7 hPa 1.7 m/s 0.9 mm
20:00 19.3° 1019.5 hPa 0.2 m/s 2.4 mm
 06:24     19:54    Daglengte: 13:30 Maandag 29 Aug
02:00 16.3° 1020.8 hPa 1.5 m/s 1.8 mm
08:00 17.4° 1020.5 hPa 1.1 m/s 0.3 mm
14:00 24.7° 1018.9 hPa 1.5 m/s 1.0 mm
20:00 18.3° 1019.4 hPa 0.0 m/s 2.4 mm
 06:25     19:52    Daglengte: 13:27 Dinsdag 30 Aug
02:00 15.9° 1020.4 hPa 1.5 m/s 0.9 mm
08:00 16.8° 1020.0 hPa 1.1 m/s 0.5 mm
14:00 24.0° 1018.1 hPa 1.4 m/s 0.8 mm
20:00 18.1° 1018.3 hPa 0.2 m/s 2.0 mm
 06:26     19:50    Daglengte: 13:24 Woensdag 31 Aug
02:00 15.6° 1019.3 hPa 1.3 m/s 1.0 mm
08:00 16.5° 1019.1 hPa 0.8 m/s 0.5 mm
14:00 23.6° 1017.1 hPa 1.7 m/s 1.4 mm
20:00 17.6° 1017.5 hPa 0.1 m/s 2.7 mm
 06:28     19:48    Daglengte: 13:20 Donderdag 01 Sep
02:00 14.9° 1018.7 hPa 1.3 m/s 1.9 mm
08:00 15.6° 1018.8 hPa 0.9 m/s 1.2 mm
14:00 22.2° 1017.5 hPa 1.3 m/s 1.5 mm
20:00 16.4° 1018.1 hPa 0.2 m/s 1.5 mm
FMI Hirlam - 7.5 km EWN WRFDA - 12 km DWD ICON - 7 km GFS - 25 km Basiskaart